TimeCDT,TemperatureF,Dew PointF,Humidity,Sea Level PressureIn,VisibilityMPH,Wind Direction,Wind SpeedMPH,Gust SpeedMPH,PrecipitationIn,Events,Conditions,WindDirDegrees,DateUTC
12:55 AM,42.8,35.6,76,30.15,10.0,SE,13.8,-,N/A,,Overcast,140,2012-10-13 05:55:00
1:15 AM,42.8,35.6,76,30.15,10.0,ESE,11.5,16.1,0.03,,Overcast,120,2012-10-13 06:15:00
1:35 AM,42.8,35.6,76,30.13,10.0,SE,13.8,-,0.05,,Overcast,130,2012-10-13 06:35:00
1:55 AM,42.8,35.6,76,30.13,7.0,SE,12.7,-,0.09,,Overcast,130,2012-10-13 06:55:00
2:15 AM,41.0,37.4,87,30.12,4.0,SSE,11.5,-,0.07,,Overcast,150,2012-10-13 07:15:00
2:35 AM,41.0,37.4,87,30.10,10.0,SSE,11.5,-,0.08,,Overcast,150,2012-10-13 07:35:00
2:55 AM,42.8,37.4,81,30.09,10.0,SSE,10.4,-,0.08,,Overcast,150,2012-10-13 07:55:00
3:15 AM,42.8,37.4,81,30.08,10.0,SSE,9.2,-,N/A,,Overcast,150,2012-10-13 08:15:00
3:35 AM,42.8,37.4,81,30.06,10.0,SSE,8.1,-,N/A,,Overcast,150,2012-10-13 08:35:00
3:55 AM,42.8,39.2,87,30.05,10.0,SSE,9.2,-,N/A,,Overcast,150,2012-10-13 08:55:00
4:15 AM,42.8,39.2,87,30.04,10.0,SE,10.4,-,N/A,,Overcast,140,2012-10-13 09:15:00
4:35 AM,44.6,41.0,87,30.05,7.0,SSE,9.2,-,0.02,,Overcast,160,2012-10-13 09:35:00
4:55 AM,44.6,41.0,87,30.04,10.0,SSE,9.2,-,0.03,,Overcast,150,2012-10-13 09:55:00
5:15 AM,44.6,41.0,87,30.04,10.0,SSE,9.2,-,N/A,,Overcast,150,2012-10-13 10:15:00
5:35 AM,46.4,41.0,81,30.02,10.0,SSE,8.1,-,N/A,,Overcast,150,2012-10-13 10:35:00
5:55 AM,46.4,41.0,81,30.02,10.0,SSE,8.1,-,N/A,,Overcast,160,2012-10-13 10:55:00
6:15 AM,46.4,42.8,87,30.00,10.0,SSE,9.2,-,N/A,,Overcast,160,2012-10-13 11:15:00
6:35 AM,46.4,42.8,87,30.00,10.0,SSE,11.5,-,N/A,,Overcast,160,2012-10-13 11:35:00
6:55 AM,46.4,42.8,87,29.99,10.0,SSE,10.4,-,N/A,,Overcast,160,2012-10-13 11:55:00
7:15 AM,46.4,42.8,87,29.99,7.0,South,10.4,-,N/A,,Overcast,170,2012-10-13 12:15:00
7:35 AM,48.2,44.6,87,29.94,10.0,SSE,12.7,19.6,N/A,,Overcast,160,2012-10-13 12:35:00
7:55 AM,48.2,44.6,87,29.94,10.0,South,11.5,-,N/A,,Overcast,170,2012-10-13 12:55:00
8:15 AM,48.2,44.6,87,29.93,10.0,SSE,12.7,-,N/A,,Overcast,160,2012-10-13 13:15:00
8:55 AM,50.0,44.6,82,29.95,10.0,South,16.1,-,N/A,,Overcast,180,2012-10-13 13:55:00
9:35 AM,50.0,46.4,87,29.96,5.0,SSW,12.7,-,0.04,,Overcast,200,2012-10-13 14:35:00
9:55 AM,50.0,46.4,87,29.94,3.0,South,12.7,-,0.08,,Overcast,170,2012-10-13 14:55:00
10:15 AM,50.0,46.4,87,29.91,3.0,SSE,11.5,-,0.01,,Overcast,150,2012-10-13 15:15:00
10:35 AM,50.0,46.4,87,29.89,2.5,SSE,13.8,-,0.04,,Overcast,160,2012-10-13 15:35:00
10:55 AM,51.8,50.0,94,29.88,3.0,SSE,15.0,-,0.04,,Overcast,160,2012-10-13 15:55:00
11:15 AM,51.8,50.0,94,29.89,4.0,South,15.0,-,N/A,,Overcast,180,2012-10-13 16:15:00
11:35 AM,51.8,50.0,94,29.88,2.5,South,11.5,16.1,N/A,,Overcast,190,2012-10-13 16:35:00
11:55 AM,53.6,51.8,94,29.87,1.5,South,10.4,-,N/A,,Overcast,190,2012-10-13 16:55:00
12:15 PM,53.6,51.8,94,29.86,1.8,South,10.4,-,N/A,,Overcast,180,2012-10-13 17:15:00
12:35 PM,55.4,53.6,94,29.85,3.0,South,12.7,-,N/A,,Overcast,190,2012-10-13 17:35:00
1:15 PM,57.2,55.4,94,29.82,4.0,South,17.3,-,N/A,,Overcast,190,2012-10-13 18:15:00
1:35 PM,57.2,55.4,94,29.80,4.0,South,12.7,-,N/A,,Overcast,170,2012-10-13 18:35:00
1:55 PM,59.0,55.4,88,29.80,5.0,South,16.1,20.7,N/A,,Overcast,180,2012-10-13 18:55:00
2:15 PM,59.0,57.2,94,29.78,5.0,South,15.0,23.0,N/A,,Overcast,190,2012-10-13 19:15:00
2:35 PM,60.8,57.2,88,29.77,7.0,South,16.1,21.9,N/A,,Overcast,180,2012-10-13 19:35:00
2:55 PM,60.8,57.2,88,29.78,5.0,SSW,17.3,24.2,N/A,,Overcast,200,2012-10-13 19:55:00
3:15 PM,60.8,57.2,88,29.78,5.0,SSW,13.8,-,N/A,,Overcast,210,2012-10-13 20:15:00
3:35 PM,60.8,57.2,88,29.77,5.0,SSW,18.4,-,N/A,,Overcast,200,2012-10-13 20:35:00
3:55 PM,60.8,57.2,88,29.77,4.0,SSW,16.1,26.5,N/A,,Overcast,200,2012-10-13 20:55:00
4:15 PM,60.8,57.2,88,29.77,4.0,SSW,15.0,-,N/A,,Overcast,200,2012-10-13 21:15:00
4:35 PM,60.8,57.2,88,29.76,3.0,South,12.7,-,N/A,,Overcast,190,2012-10-13 21:35:00
4:55 PM,60.8,57.2,88,29.76,1.8,SSW,11.5,-,N/A,,Overcast,200,2012-10-13 21:55:00
5:15 PM,60.8,57.2,88,29.77,1.2,SSW,13.8,-,N/A,,Overcast,200,2012-10-13 22:15:00
5:35 PM,60.8,59.0,94,29.78,0.8,South,11.5,-,N/A,,Overcast,190,2012-10-13 22:35:00
5:55 PM,60.8,59.0,94,29.78,1.2,South,10.4,-,N/A,,Overcast,190,2012-10-13 22:55:00
6:15 PM,60.8,59.0,94,29.77,1.8,South,9.2,-,N/A,,Overcast,180,2012-10-13 23:15:00
6:35 PM,60.8,59.0,94,29.77,2.5,South,8.1,-,N/A,,Overcast,180,2012-10-13 23:35:00
7:35 PM,60.8,59.0,94,29.78,2.5,SSE,6.9,-,N/A,,Overcast,160,2012-10-14 00:35:00
7:55 PM,60.8,59.0,94,29.77,2.0,SSE,5.8,-,N/A,,Overcast,150,2012-10-14 00:55:00
8:35 PM,60.8,59.0,94,29.76,2.5,SSE,8.1,-,N/A,,Overcast,160,2012-10-14 01:35:00
9:15 PM,60.8,59.0,94,29.76,1.5,South,5.8,-,N/A,,Overcast,190,2012-10-14 02:15:00
9:35 PM,62.6,60.8,94,29.75,2.0,South,8.1,-,N/A,,Overcast,170,2012-10-14 02:35:00
9:55 PM,62.6,60.8,94,29.74,2.0,South,9.2,-,N/A,,Overcast,170,2012-10-14 02:55:00
10:15 PM,62.6,60.8,94,29.75,2.0,South,9.2,-,N/A,,Overcast,180,2012-10-14 03:15:00
11:15 PM,62.6,60.8,94,29.73,1.8,South,6.9,-,N/A,,Overcast,170,2012-10-14 04:15:00
11:35 PM,62.6,60.8,94,29.72,3.0,South,11.5,-,0.01,,Overcast,180,2012-10-14 04:35:00